x

South Santa Rosa Is. Ca (46069) Wave Buoy

8:50 - Sun 21st Sep 2014 All times are PDT. -7 hours from GMT.

  • Sig Wave height 3.6ft
  • Peak Period 12s
  • Average Period 6s
  • Wind
    13mph, 16mph gusts
  • Sea Temp 69°f
  • Air Temp 65°f
  • Sea Pressure 1015.6mb
  • South Santa Rosa Is. Ca
  • South Santa Rosa Is. Ca

More Historic Weather Station data

Upgrade to MSW Pro to gain access to the past 30 days of data for over 8000 Wavebouys and Weather Stations around the globe.

Join Pro

Comparision Forecast

View Surf forecast
   
dim. 09/21 8:50 3.5ft 12s 6s 13 16 mph 1015.6mb 69f 65f
7:50 4ft 12s 6s 13 16 mph 1015mb 69f 65f
6:50 3.5ft 13s 6s 13 16 mph 1014.3mb 69f 66f
5:50 3.5ft 14s 6s 11 13 mph 1013.8mb 69f 66f
4:50 4ft 13s 6s 13 16 mph 1013.3mb 69f 66f
3:50 4ft 14s 6s 11 13 mph 1013.2mb 69f 66f
2:50 4ft 14s 6s 13 16 mph 1013.4mb 69f 66f
1:50 3.5ft 14s 6s 13 16 mph 1013.7mb 69f 67f
12:50 3.5ft 14s 6s 16 18 mph 1013.7mb 69f 66f
sam. 09/20 11:50 4ft 14s 6s 13 18 mph 1013.8mb 69f 67f
10:50 4.5ft 13s 6s 16 20 mph 1013.7mb 69f 67f
9:50 3.5ft 14s 6s 13 16 mph 1013.4mb 69f 67f
8:50 4.5ft 14s 6s 13 18 mph 1013mb 69f 67f
7:50 4ft 14s 6s 13 18 mph 1012.5mb 69f 67f
6:50 4.5ft 14s 7s 13 18 mph 1012.2mb 69f 67f
5:50 4.5ft 14s 7s 13
mph
1012.1mb 69f 67f
4:50 4.5ft 14s 7s 13 16 mph 1012.3mb 69f 67f
3:50 3.5ft 11s 6s 13 16 mph 1012.4mb 69f 67f
2:50 4ft 13s 7s 13 16 mph 1012.8mb 69f 67f
1:50 4ft 13s 7s 13 16 mph 1013.3mb 69f 66f
12:50 4ft 14s 7s 13 18 mph 1013.7mb 69f 65f
11:50 4.5ft 14s 8s 11 13 mph 1014.2mb 69f 65f
10:50 4.5ft 10s 7s 11 13 mph 1014.2mb 69f 65f
9:50 4.5ft 15s 7s 9 11 mph 1014.2mb 68f 65f
8:50 4.5ft 9s 7s 9 11 mph 1013.5mb 68f 65f
7:50 5ft 14s 7s 11 13 mph 1013.2mb 68f 65f
6:50 5ft 15s 7s 13 16 mph 1012.4mb 68f 65f
5:50 4.5ft 14s 6s 13 16 mph 1011.9mb 68f 65f
4:50 5ft 10s 7s 13 16 mph 1011.5mb 69f 66f
3:50 5ft 14s 6s 16 20 mph 1011.4mb 69f 66f
2:50 5ft 10s 6s 13 16 mph 1011.7mb 69f 66f
12:50 5.5ft 14s 7s 13 16 mph 1011.7mb 69f 67f
ven. 09/19 11:50 5.5ft 15s 7s 16 18 mph 1011.9mb 69f 67f
10:50 5ft 13s 6s 16 20 mph 1011.6mb 69f 67f
9:50 5.5ft 14s 7s 16 20 mph 1011.5mb 69f 67f
8:50 5.5ft 11s 7s 16 20 mph 1011.4mb 69f 67f
7:50 6ft 10s 7s 18 20 mph 1010.9mb 69f 67f
5:50 5.5ft 15s 7s 16 18 mph 1010.7mb 70f 67f
4:50 6ft 11s 8s 13 16 mph 1010.8mb 70f 67f
3:50 6ft 10s 8s 13 16 mph 1011mb 70f 67f
2:50 6ft 11s 8s 13 16 mph 1011.2mb 70f 67f
1:50 7ft 15s 8s 11 13 mph 1011.8mb 70f 67f
12:50 6ft 15s 8s 9 11 mph 1012.2mb 70f 66f
11:50 6ft 9s 8s 13 16 mph 1012.5mb 69f 66f
10:50 6.5ft 11s 8s 16 18 mph 1012.5mb 69f 67f
9:50 7ft 10s 8s 16 18 mph 1012.7mb 69f 67f
8:50 6.5ft 15s 7s 16 20 mph 1012.5mb 69f 66f
7:50 6.5ft 9s 7s 16 18 mph 1012.2mb 69f 66f
6:50 6.5ft 15s 7s 18 20 mph 1011.7mb 69f 66f
5:50 6.5ft 11s 7s 18 22 mph 1011.2mb 69f 66f
4:50 6.5ft 12s 7s 18 20 mph 1011mb 69f 67f
3:50 6ft 8s 7s 18 22 mph 1011.1mb 69f 67f
2:50 7.5ft 15s 7s 18 20 mph 1011.1mb 69f 67f
1:50 7ft 15s 7s 18 20 mph 1011.3mb 69f 67f
12:50 7ft 12s 7s 18 22 mph 1011mb 69f 67f
jeu. 09/18 11:50 7ft 15s 7s 18 22 mph 1011.3mb 69f 67f
10:50 6ft 9s 7s 18 22 mph 1011mb 69f 67f
9:50 7ft 16s 7s 18 20 mph 1010.9mb 69f 67f
8:50 6.5ft 15s 7s 20 22 mph 1010.7mb 69f 67f
7:50 6ft 16s 7s 18 22 mph 1010.2mb 70f 67f
6:50 7ft 16s 7s 18 22 mph 1010mb 70f 67f
5:50 6ft 12s 7s 20 25 mph 1010mb 70f 67f
4:50 6ft 10s 7s 16 20 mph 1010.1mb 71f 68f
3:50 6ft 10s 8s 18 20 mph 1010.1mb 71f 68f
2:50 6ft 16s 8s 16 18 mph 1010.6mb 71f 68f
1:50 7ft 16s 9s 11 13 mph 1011.1mb 71f 69f
12:50 6ft 9s 8s 11 13 mph 1011.6mb 70f 68f
11:50 6.5ft 10s 8s 11 13 mph 1012mb 70f 68f
10:50 6ft 16s 9s 16 18 mph 1012.1mb 70f 67f
9:50 7ft 16s 9s 13 18 mph 1012mb 70f 67f
8:50 6ft 10s 9s 11 13 mph 1011.5mb 70f 67f
7:50 6ft 16s 8s 13 18 mph 1010.8mb 69f 67f
6:50 5.5ft 16s 8s 13 16 mph 1010.1mb 69f 67f
5:50 5ft 15s 7s 13 16 mph 1009.6mb 69f 67f
4:50 6ft 16s 7s 18 20 mph 1009.4mb 69f 67f
3:50 5ft 15s 6s 18 22 mph 1009.3mb 69f 67f
2:50 5ft 16s 7s 18 22 mph 1009.5mb 69f 67f
1:50 5ft 16s 7s 18 20 mph 1009.5mb 69f 67f
12:50 5ft 16s 6s 18 22 mph 1009.5mb 69f 67f
mer. 09/17 11:50 5.5ft 16s 6s 20 25 mph 1009.4mb 69f 66f
10:50 5ft 16s 6s 20 22 mph 1009.5mb 69f 66f
9:50 5.5ft 17s 7s 20 25 mph 1009.4mb 69f 66f
8:50 6ft 17s 6s 20 25 mph 1008.9mb 69f 66f
7:50 5.5ft 17s 6s 20 25 mph 1008.6mb 69f 66f
6:50 6ft 17s 6s 20 25 mph 1008.2mb 69f 66f
5:50 6ft 17s 6s 22 27 mph 1008mb 68f 66f
4:50 6ft 17s 6s 22 27 mph 1008mb 68f 66f